SES-17

Last updated on Tue Sep 16 2025 00:02:50 GMT+0000 (Coordinated Universal Time)

1 49332U 21095A 25257.99766723 -.00000287 00000+0 00000+0 0 9994 2 49332 0.0187 109.4398 0001654 77.4152 99.4175 1.00269608 15097
UTC large
Height (km)
Speed (km/s)
/
Latitude / Longitude
Inclination (degrees)
Orbital Period (minutes)
Azimuth
Elevation
Range (km)
Doppler Factor

Next 0 passes for location: London (51.5072 / 0.1276)

Sorry there are no passes over London.